Regional Weather Roundup
Issued by NWS

Home | Current Version | Previous Version | Graphics & Text | Print | Product List | Glossary On
Versions: 1 2 3 4 5 6 7 8 9 10 11 12 13 14 15 16 17 18 19 20 21 22 23 24 25 26 27 28 29 30 31 32 33 34 35 36 37 38 39 40 41 42 43 44 45 46 47 48 49 50
000
ASUS45 KSLC 231710
RWRUT

UTAH REGIONAL WEATHER ROUNDUP
NATIONAL WEATHER SERVICE SALT LAKE CITY UT
1100 AM MDT WED JUL 23 2014

UTZ001>011-023>025-231800-

NORTHERN UTAH

CITY           SKY/WX    TMP DP  RH WIND       PRES   REMARKS
HILL AFB       SUNNY     85  41  21 E6        30.19S
LOGAN          NOT AVBL
OGDEN          SUNNY     90  37  15 CALM      30.15F
PROVO AIRPORT  NOT AVBL
SALT LAKE CITY MOSUNNY   94  32  11 S23       30.11F
VERNAL         SUNNY     83  32  16 SW5       30.27F
WENDOVER       SUNNY     88  27  11 E10       30.13S
HEBER CITY     SUNNY     79  36  21 CALM      30.27F
WEST JORDAN    SUNNY     91  46  21 SE18G24   30.17F

$$

UTZ012>022-026-027-231800-

SOUTHERN UTAH

CITY           SKY/WX    TMP DP  RH WIND       PRES   REMARKS
BRYCE CANYON   SUNNY     80  36  20 SE9       30.46F
CEDAR CITY     SUNNY     90  23   9 SW9       30.26F
MILFORD        SUNNY     91  30  11 S15       30.20F
MOAB/CYNLANDS  SUNNY     93  42  17 VRB5      30.19F
PRICE          MOSUNNY   87  28  12 S14       30.32F
ST GEORGE      SUNNY     91  32  12 NW5       30.08F
KANAB            N/A     90  27  10 CALM      30.26F

$$

REGIONAL REPORTS     COLORADO/ARIZONA

CITY           SKY/WX    TMP DP  RH WIND       PRES   REMARKS
CRAIG, CO      SUNNY     82  45  27 VRB3      30.36F
GRAND JUNCTION SUNNY     91  38  15 SE5       30.24F
RIFLE          MOSUNNY   86  42  21 W7        30.31F
MONTROSE       MOSUNNY   92  39  15 CALM      30.34F
CORTEZ         SUNNY     88  46  23 SW12      30.36
PAGE, AZ       SUNNY     92  42  17 SW3       30.19F
GRAND CANYON   SUNNY     85  36  17 SW10      30.39S
KINGMAN        SUNNY     96  28   9 CALM      30.12R HX  90
FLAGSTAFF      CLOUDY    80  41  24 CALM      30.43F

$$

REGIONAL REPORTS    NEVADA/IDAHO/WYOMING

CITY           SKY/WX    TMP DP  RH WIND       PRES   REMARKS
LAS VEGAS, NV  SUNNY     97  31   9 S8        29.96F HX  91
ELY            SUNNY     87  25  10 S20G28    30.27F
ELKO           SUNNY     80  39  23 W3        30.17F
POCATELLO, ID  SUNNY     79  48  33 VRB6      30.19F
BURLEY         MOSUNNY   80  50  34 VRB5      30.13F
EVANSTON, WY   PTSUNNY   81  36  19 SW13      30.39S
ROCK SPRINGS   SUNNY     84  23  10 CALM      30.36F

$$



USA.gov is the U.S. government's official web portal to all federal, state and local government web resources and services.